Regional Weather Roundup
Issued by NWS

Home | Current Version | Previous Version | Text Only | Print | Product List | Glossary On
Versions: 1 2 3 4 5 6 7 8 9 10 11 12 13 14 15 16 17 18 19 20 21 22 23 24 25 26 27 28 29 30 31 32 33 34 35 36 37 38 39 40 41 42 43 44 45 46 47 48 49 50
258
ASUS46 KLOX 031313
RWRCA

SOUTHERN CALIFORNIA WEATHER ROUNDUP
NATIONAL WEATHER SERVICE OXNARD CALIFORNIA
600 AM PDT TUE MAY 03 2016

NOTE: "FAIR" INDICATES FEW OR NO CLOUDS BELOW 12,000 FEET WITH NO
SIGNIFICANT WEATHER AND/OR OBSTRUCTIONS TO VISIBILITY.

  -  STATIONS PRECEEDED BY AN ASTERISK (*) ARE NOT NWS OR FAA
     STATIONS AND ARE NOT SUBJECT TO NWS AND FAA QUALITY CONTROL.

CAZ041-042-087-031400-
LA AND ORANGE COUNTY COASTAL AREAS


CITY           SKY/WX    TMP DP  RH WIND       PRES   REMARKS
L.A. DOWNTOWN  FAIR      58  53  84 CALM      29.95S
L.A. AIRPORT   FAIR      57  54  89 W3        29.96R
LONG BEACH     FAIR      58  54  86 CALM      29.96R

CITY           SKY/WX    TMP DP  RH WIND       PRES   REMARKS
FULLERTON      MOCLDY    59  54  83 E3        29.95R
HAWTHORNE      FAIR      58  54  86 CALM      29.96S
*LOS ALAMITOS  FAIR      56  55  96 E3        29.96R FOG
*REDONDO BEACH   N/A     56  53  90 CALM      29.95S
SANTA ANA      CLOUDY    59  55  88 S3        29.96R
STA MONICA APT FAIR      56  53  90 CALM      29.96R
*UCLA            N/A     55  50  82 CALM      29.93S

$$

CAZ547-548-048-031400-
LA COUNTY VALLEYS AND INLAND EMPIRE


CITY           SKY/WX    TMP DP  RH WIND       PRES   REMARKS
BURBANK        FAIR      59  51  75 CALM      29.95R
VAN NUYS       FAIR      59  51  75 CALM      29.95R

CITY           SKY/WX    TMP DP  RH WIND       PRES   REMARKS
*CHATSWORTH      N/A     56  49  75 CALM      29.96R
CHINO          FAIR      54  51  90 CALM      29.97R FOG
MARCH AFB      FAIR      50  46  87 CALM      29.97R
*NORTHRIDGE      N/A     57  48  72 CALM        N/A
ONTARIO        FAIR      59  51  75 CALM      29.96R
*PASADENA        N/A     59  54  82 CALM        N/A
RIVERSIDE      FAIR      57  50  77 CALM      29.96R
SAN BERNARDINO NOT AVBL
*SAN GABRIEL     N/A     56  52  86 CALM      30.02S
*WHITEMAN AP   NOT AVBL
*WOODLAND HILL   N/A     54  50  87 SE1         N/A

$$

CAZ054-055-031400-
LA AND SAN BERNARDINO COUNTY MOUNTAINS


CITY           SKY/WX    TMP DP  RH WIND       PRES   REMARKS
*BIG BEAR AIRP FAIR      30  28  93 CALM      30.19R
*CHILAO          N/A     55  28  35 NE9         N/A
SANDBERG       FAIR      57  36  45 E12       30.09S
*WARM SPRINGS    N/A     58  42  56 NE15        N/A

$$

CAZ028-029-059-060-099-031400-
ANTELOPE VALLEY AND SURROUNDING AREAS


CITY           SKY/WX    TMP DP  RH WIND       PRES   REMARKS
LANCASTER      FAIR      49  36  61 CALM      30.04R
PALMDALE       FAIR      51  39  63 SW6       30.04R

CITY           SKY/WX    TMP DP  RH WIND       PRES   REMARKS
29 PALMS       FAIR      54  31  41 CALM      30.07R
BARSTOW/DAGGET FAIR      56  36  47 W7        30.02R
BISHOP         FAIR      41  29  62 NW7       30.13S
CHINA LAKE     FAIR      51  30  44 CALM      30.03S
EDWARDS AFB    CLEAR     51  30  43 CALM      30.01S
MOJAVE         CLEAR     57  32  38 N7        30.04S
NEEDLES        FAIR      70  38  31 N7        29.96R
VICTORVILLE    FAIR      46  34  61 CALM      30.05R

$$

CAZ039-040-031400-
VENTURA AND SANTA BARBARA COUNTY COAST


CITY           SKY/WX    TMP DP  RH WIND       PRES   REMARKS
CAMARILLO      FAIR      51  46  83 CALM      29.95R
NWS OXNARD       N/A     52  49  87 CALM      29.94R
OXNARD AIRPORT FAIR      54  50  86 CALM      29.95R
*POINT MUGU    FAIR      51  48  89 CALM      29.96R
SBA APT/GOLETA FAIR      54  51  90 NE3       29.95R
*SANTA BARBARA   N/A     56  51  82 CALM      30.03R
*VENTURA         N/A     51  49  92 NW2       29.94R

$$

CAZ044-045-031400-
VENTURA COUNTY VALLEYS


CITY           SKY/WX    TMP DP  RH WIND       PRES   REMARKS
*SIMI VALLEY     N/A     53  47  81 CALM      29.91S
*OJAI            N/A     46  43  90 CALM      29.92R
*FILLMORE        N/A     50  45  84 CALM      29.85R

$$

CAZ053-031400-
VENTURA COUNTY MOUNTAINS


CITY           SKY/WX    TMP DP  RH WIND       PRES   REMARKS
*LOCKWOOD VLY    N/A     34  32  93 W1          N/A
*ROSE VALLEY     N/A     36  37 100 MISG        N/A

$$

CAZ034-035-036-031400-
CENTRAL COAST AND SANTA YNEZ VALLEY


CITY           SKY/WX    TMP DP  RH WIND       PRES   REMARKS
SAN LUIS OBISP CLOUDY    55  52  89 CALM      29.95F FOG
SANTA MARIA    FOG       52  51  97 SE3       29.96S VSB 1

CITY           SKY/WX    TMP DP  RH WIND       PRES   REMARKS
*CAL POLY SLO    N/A     50  50 100 CALM        N/A
*LOMPOC        FOG       46  46 100 E5        29.96F VSB 1/4
*PISMO BEACH     N/A     52  51  93 CALM      29.96R
*SANTA YNEZ    FAIR      46  45  93 CALM      29.96S

$$

CAZ037-038-051-031400-
SAN LUIS OBISPO COUNTY INTERIOR AND CUYAMA VALLEY


CITY           SKY/WX    TMP DP  RH WIND       PRES   REMARKS
*CUYAMA          N/A     49  43  80 E2        29.95R
PASO ROBLES    FAIR      47  44  90 MISG      29.99F

$$

CAZ032-033-061-031400-
SOUTHERN DESERTS


CITY           SKY/WX    TMP DP  RH WIND       PRES   REMARKS
BLYTHE         FAIR      67  36  31 W5        29.91R
IMPERIAL       FAIR      64  40  41 W6        29.87R
PALM SPRINGS   FAIR      68  43  40 N7        29.93R
THERMAL        FAIR      57  45  64 CALM      29.88R

$$

ELSEWHERE ACROSS THE WESTERN UNITED STATES AND MEXICO


CITY           SKY/WX    TMP DP  RH WIND       PRES   REMARKS
DEATH VALLEY,    N/A     69  36  29 CALM        N/A
DENVER, CO     FAIR      41  29  62 W10       30.19R WCI  35
GRAND CANYON,  FAIR      39  33  79 NE9       30.23R WCI  33
HONOLULU, HI   PTCLDY    75  64  69 NE15G22   30.07F
KAHULUI, MAUI  CLEAR     72  64  78 NE10      30.09F
LAKE TAHOE, CA FAIR      31  28  89 CALM      30.19R
LAS VEGAS, NV  FAIR      63  41  44 CALM      30.03R
MAMMOTH LAKES, FAIR      30  27  87 NW3       30.24S
MEXICO CITY, M MOSUNNY   59  50  72 E7        30.29R
PHOENIX, AZ    FAIR      65  43  44 SW3       29.92R
PORTLAND, OR   MOCLDY    58  49  72 W3        30.04R
RENO, NV       FAIR      45  36  70 CALM      30.14R
SALT LAKE CITY FAIR      48  35  60 SE6       30.22R
SAN DIEGO, CA  FAIR      60  54  80 N3        29.97S
SAN FRANCISCO, CLOUDY    53  52  96 CALM      29.99S
SAN JOSE, CA   CLOUDY    57  52  83 CALM      29.98F HAZE
SEATTLE, WA    MOCLDY    56  51  84 S7        30.03R
TIJUANA, MEX   MOCLDY    54  50  87 CALM      29.97S FOG

$$

STATION/POSITION TIME  TEMP    WIND        PRES    VSBY  WAVE
                       AIR SEA DIR/SP/G                  HT/PER
                 (UTC) (F)     (DEG/KT/KT) (MB)    (MI)  (FT/S)
POINT ARGUELLO B NOT AVBL
WEST SANTA BARBA 1250   56 57  330/  4/  6 1013.3F         7/14
POINT CONCEPTION NOT AVBL
EAST SANTA BARBA 1200   55 56  220/  8/ 10 1014.4F
SANTA MONICA BAY 1250   58 61  340/  4/  6 1014.3R         3/15



USA.gov is the U.S. government's official web portal to all federal, state and local government web resources and services.